#timestamp,LO_Frequency,Hit,StdDev 
1628679615.6,286046999.4,N
1628679635.5,286046999.2,N
1628679655.3,286046999.0,N
1628679675.1,286047001.0,N
1628679695.9,286046998.2,N
1628679715.7,286046998.9,N
1628679735.6,286046999.5,N
1628679755.4,286046999.5,N
1628679775.0,286046999.6,N
1628679775.9,286046999.6,N
1628679795.8,286046997.1,N
1628679815.6,286046999.6,N
1628679835.4,286046998.3,N
1628679855.3,286046998.1,N
1628679875.1,286047000.7,N
1628679895.9,286046998.2,N
1628679915.7,286046998.3,N
1628679935.5,286047000.3,N
1628679955.4,286047000.5,N
1628679975.2,286047000.1,N
1628679995.0,286047002.3,N
1628679995.9,286047002.3,N
1628680015.8,286047001.9,N
1628680035.6,286047003.8,N
1628680055.5,286047005.6,Y
1628680075.3,286047005.4,P
1628680095.1,286047004.9,N
1628680115.9,286047005.0,N
1628680135.7,286047005.8,N
1628680155.5,286047005.7,N
1628680175.3,286047005.7,N
1628680195.1,286047005.5,N
1628680215.9,286047005.0,N
1628680235.7,286047007.5,Y
1628680255.5,286047001.6,P
1628680275.4,286047002.1,N
1628680295.2,286047001.7,N
1628680315.1,286047001.3,N
1628680316.0,286047001.3,N
1628680335.8,286047001.3,N
1628680355.6,286047001.7,N
1628680375.5,286047001.3,N
1628680395.3,286047004.2,Y
1628680415.2,286047000.2,P
1628680435.0,286047000.0,N
1628680435.9,286047000.0,N
1628680455.8,286046999.8,N
1628680475.6,286046999.8,N
1628680495.4,286046999.8,N
1628680515.3,286046999.7,N
1628680535.1,286046999.7,N
1628680555.9,286047000.0,N
1628680575.7,286046998.3,N
1628680595.5,286046998.2,N
1628680615.4,286046998.7,N
1628680635.2,286046999.5,N
1628680655.0,286046996.7,Y
1628680655.9,286046996.7,P
1628680675.8,286046998.9,N
1628680695.6,286046999.3,N
1628680715.5,286047001.2,N
1628680735.3,286047000.6,N
1628680755.1,286047000.3,N
1628680775.9,286047001.0,N
1628680795.7,286046998.1,N
1628680815.5,286046998.1,N
1628680835.4,286047011.9,Y
1628680855.2,286046999.4,P
1628680875.1,286046998.2,P
1628680876.0,286046998.2,P
1628680895.8,286046998.8,N
1628680915.6,286046996.9,Y
1628680935.5,286046998.7,P
1628680955.3,286046996.9,P
1628680975.1,286046998.3,N
1628680995.9,286046999.8,N
1628681015.7,286046999.8,N
1628681035.6,286046998.2,N
1628681055.4,286046999.4,N
1628681075.2,286047000.7,N
1628681095.1,286047000.7,N
1628681096.0,286047000.7,N
1628681115.8,286046998.7,N
1628681135.6,286046998.1,N
1628681155.5,286047001.1,N
1628681175.3,286046998.7,N
1628681195.2,286047001.2,N
1628681215.9,286047001.2,N
1628681235.7,286046999.1,N
1628681255.6,286047000.7,N
1628681275.4,286047000.1,N
1628681295.2,286047000.1,N
1628681315.1,286047000.1,N
1628681316.0,286047000.1,N
1628681335.8,286047000.3,N
1628681355.7,286046998.5,N
1628681375.5,286046999.3,N
1628681395.3,286046999.6,N
1628681415.2,286046996.9,N
1628681435.9,286046998.5,N
1628681455.7,286047000.7,N
1628681475.6,286046998.8,N
1628681495.4,286046998.3,N
1628681515.3,286047001.0,N
1628681535.1,286046999.7,N
1628681536.0,286046999.7,N
1628681555.8,286047000.3,N
1628681575.7,286046999.5,N
1628681595.5,286046997.2,N
1628681615.3,286046997.1,N
1628681635.2,286046998.0,N
1628681655.0,286046993.9,Y
1628681655.9,286046993.9,P
1628681675.8,286046995.8,N
1628681695.6,286046995.4,N
1628681715.4,286046997.2,N
1628681735.3,286046997.8,N
1628681755.1,286046995.1,N
1628681775.9,286046995.7,N
1628681795.7,286046995.9,N
1628681815.5,286046995.6,N
1628681835.4,286046995.1,Y
1628681855.2,286046999.0,P
1628681875.1,286047000.6,N
1628681876.0,286047000.6,N
1628681895.8,286046999.8,N
1628681915.6,286046999.9,N
1628681935.5,286047000.4,N
1628681955.3,286046999.3,N
1628681975.2,286046998.5,N
1628681995.9,286046997.0,N
1628682015.7,286046999.2,N
1628682035.6,286046998.2,N
1628682055.4,286047000.6,N
1628682075.2,286047002.2,N
1628682095.1,286047002.0,N
1628682096.0,286047002.0,N
1628682115.8,286047002.1,N
1628682135.7,286047001.7,N
1628682155.5,286047002.3,N
1628682175.3,286046999.7,N
1628682195.2,286047002.8,N
1628682215.0,286046998.3,N
1628682215.9,286046998.3,N
1628682235.8,286046998.3,N
1628682255.6,286047000.2,N
1628682275.4,286047001.0,N
1628682295.3,286047000.8,N
1628682315.1,286046998.5,N
1628682335.8,286047002.3,N
1628682355.7,286047002.4,N
1628682375.5,286047001.5,N
1628682395.4,286047002.6,N
1628682415.2,286047002.6,N
1628682435.0,286046999.8,N
1628682435.9,286046999.8,N
1628682455.8,286047002.5,N
1628682475.6,286047001.6,N
1628682495.5,286047001.6,N
1628682515.3,286047001.3,N
1628682535.1,286047002.0,N
1628682555.9,286047002.1,N
1628682575.7,286047000.0,N
1628682595.6,286047000.0,N
1628682615.4,286046998.7,N
1628682635.2,286046998.9,N
1628682655.1,286046997.6,N
1628682656.0,286046997.6,N
1628682675.8,286046997.2,N
1628682695.7,286046998.9,N
1628682715.5,286046997.7,N
1628682735.3,286046997.4,N
1628682755.2,286046997.9,N
1628682775.9,286046996.9,N
1628682795.7,286046999.1,N
1628682815.6,286046998.8,N
1628682835.4,286047000.9,N
1628682855.3,286047002.6,N
1628682875.1,286047000.0,N
1628682876.0,286047000.0,N
1628682895.8,286046999.2,N
1628682915.7,286046998.8,N
1628682935.5,286046997.1,N
1628682955.3,286046999.6,N
1628682975.2,286046998.4,N
1628682995.0,286046998.9,N
1628682995.9,286046998.9,N
1628683015.8,286046999.2,N
1628683035.6,286046999.6,N
1628683055.4,286046999.2,N
1628683075.3,286046998.8,N
1628683095.1,286046998.3,N
1628683115.8,286046998.7,N
1628683135.7,286046999.1,N
1628683155.5,286046999.6,N
1628683175.3,286046997.8,N
1628683195.2,286046999.0,N
